Wind_Speed
20 19 18 18 17 16 15 14 13 14 14 13 13 14 15 16 16 17 17 17 15 15 14 12 11 10 8 7 9 13 17 19 21 22 21 20 20 19 17 16 15 14 12 11
21 20 20 20 18 16 15 14 13 14 14 13 13 13 14 15 16 16 17 16 14 14 13 12 11 9 7 8 9 13 16 19 20 21 21 21 21 19 17 17 15 14 13 12
22 21 21 20 18 16 14 14 14 14 13 13 13 12 14 15 15 15 16 15 13 13 12 11 10 8 7 7 9 12 15 17 19 20 21 21 20 19 17 17 16 15 14 13
22 21 21 20 18 16 15 15 14 13 11 11 12 11 13 14 13 14 15 15 13 12 12 11 10 9 8 8 9 12 15 16 18 20 20 20 19 19 18 17 16 16 14 13
21 21 21 20 19 17 16 16 14 12 11 10 11 10 11 13 13 14 14 14 13 12 11 11 10 9 8 7 9 11 14 16 17 19 20 20 20 19 19 17 17 16 16 15
20 20 20 19 19 18 16 15 14 12 11 11 11 10 9 11 12 13 14 13 12 11 10 10 10 9 7 6 8 10 13 15 17 18 19 20 20 20 19 18 17 17 16 15
18 19 19 19 19 18 16 15 14 12 11 11 12 9 9 10 12 12 13 12 11 11 10 9 9 8 6 5 6 9 11 13 16 18 19 19 19 19 19 18 17 17 15 15
17 18 18 19 19 18 18 17 15 13 12 11 13 10 9 10 11 12 12 12 11 11 10 9 8 8 6 4 5 7 10 13 16 17 17 18 17 17 18 17 17 16 15 15
16 18 18 18 18 19 19 17 16 16 14 12 11 11 10 10 11 11 11 11 11 10 10 8 7 7 6 3 2 4 8 12 14 16 16 16 16 17 17 17 17 16 16 15
18 18 18 18 18 19 19 18 18 16 14 13 11 11 10 10 10 11 11 11 10 10 9 8 6 5 5 3 2 3 6 10 12 13 14 15 16 17 17 17 17 16 16 16
20 19 19 19 19 19 19 19 19 17 17 14 12 11 12 10 10 10 11 11 10 9 9 8 6 5 4 3 1 2 3 6 9 11 13 15 16 17 17 17 17 17 17 16
24 22 21 21 20 20 20 20 19 19 17 16 14 12 12 11 10 11 11 11 10 9 8 7 6 6 5 3 1 1 2 4 8 11 12 14 15 16 17 17 17 16 16 16
28 26 23 21 21 23 23 21 21 21 20 18 15 13 13 11 11 12 12 11 10 9 8 8 7 6 5 4 3 2 3 4 6 8 10 12 14 15 16 16 16 16 17 17
30 29 27 23 21 23 24 23 23 22 21 19 17 15 15 14 13 12 12 11 10 9 9 9 8 7 6 5 5 4 4 4 4 6 8 11 13 14 15 16 16 17 18 18
32 31 30 30 29 28 26 26 26 25 24 22 20 18 16 15 14 14 13 13 12 12 11 10 9 8 8 7 7 6 6 6 6 6 8 10 12 13 14 15 16 17 18 19
35 34 33 32 31 31 30 29 28 28 27 26 24 21 18 17 16 15 15 14 14 13 12 11 11 10 10 10 9 9 9 9 9 9 9 10 11 13 14 15 17 18 19 20
36 36 35 33 33 35 33 29 29 29 28 28 26 23 22 21 19 18 17 16 16 15 14 12 12 12 12 12 12 12 12 12 12 12 12 12 13 14 15 16 17 18 19 20
34 35 36 34 35 37 31 31 30 29 28 28 28 27 25 24 22 21 20 19 17 16 15 14 14 13 13 13 14 14 15 15 15 15 15 16 16 17 17 18 19 20 21 22
33 34 35 35 35 35 32 32 29 29 29 29 29 29 28 26 25 25 24 21 19 18 17 17 16 15 16 16 16 17 17 18 18 18 18 18 19 19 19 20 21 22 23 24
31 32 33 34 34 34 31 31 30 30 30 30 30 30 29 29 29 27 26 24 23 21 21 20 20 18 18 18 19 19 19 19 20 20 20 20 21 20 21 22 23 24 25 26
28 29 31 31 33 33 31 29 29 30 30 29 30 31 31 31 31 30 29 28 26 25 24 23 23 22 21 21 21 21 22 21 21 21 22 23 23 23 23 24 25 26 28 30
27 27 28 29 30 29 29 28 30 30 29 29 30 31 31 31 31 31 31 30 29 28 27 26 25 25 24 24 25 24 24 24 24 24 24 24 24 25 25 27 28 29 30 31
25 26 27 28 29 28 27 27 28 29 28 29 29 30 31 31 32 31 31 31 31 30 30 29 28 28 28 27 27 27 26 27 26 26 26 26 26 27 27 28 30 31 32 33
25 26 27 27 26 26 27 27 28 28 28 28 29 29 30 31 31 31 32 32 32 32 31 31 30 29 28 28 28 29 28 28 28 28 28 28 29 29 30 32 33 33 34 36
24 25 25 25 24 25 25 25 26 27 27 28 29 30 31 31 31 31 31 32 32 32 32 32 31 30 29 28 27 27 28 29 30 30 30 30 30 31 33 34 35 36 37 38
22 23 23 22 21 22 22 23 23 25 26 27 27 29 30 31 31 32 32 32 32 32 32 32 32 30 29 29 28 28 29 30 30 30 31 32 32 33 34 35 37 38 39 40
Wind_Direction
284 282 278 275 274 271 273 275 277 284 294 303 308 312 315 320 323 326 329 327 327 329 328 324 316 307 295 263 235 212 205 205 206 206 207 208 210 212 214 215 215 215 216 215
279 277 273 273 273 271 271 271 275 280 289 299 306 311 315 318 323 327 330 329 329 331 328 324 319 310 289 263 239 218 209 207 208 208 210 208 211 214 217 216 215 215 215 212
275 271 270 270 270 267 265 266 269 275 287 297 305 317 317 319 319 323 330 332 330 332 332 327 323 313 291 260 233 220 210 208 209 208 207 209 212 215 215 218 217 216 215 213
270 268 266 265 264 262 258 262 265 272 280 287 300 312 315 320 320 323 329 333 334 333 335 335 328 319 295 262 239 224 213 211 209 207 208 212 214 215 213 212 214 214 213 213
267 263 262 261 259 256 250 255 260 267 276 286 300 311 316 318 320 324 327 331 332 334 335 333 330 323 301 265 238 226 216 213 210 210 212 213 212 211 209 211 212 212 214 214
264 263 259 256 254 252 251 254 261 269 278 286 290 299 317 317 319 324 329 333 332 335 336 334 327 321 309 268 240 225 215 214 209 208 210 209 210 209 209 212 213 213 213 212
263 262 258 254 251 251 247 249 257 266 274 281 282 291 303 309 317 322 327 332 334 336 337 337 334 325 312 277 242 225 219 210 204 205 204 204 207 207 209 212 213 213 214 215
261 260 257 255 249 247 245 242 242 245 257 270 284 286 293 304 314 321 325 330 335 336 338 335 334 332 320 286 244 225 217 207 201 202 203 204 204 204 208 212 214 215 216 216
254 255 257 253 248 243 243 241 241 246 254 262 267 278 288 298 309 314 319 326 331 333 336 337 337 336 332 304 249 216 205 201 201 204 203 204 206 208 210 213 214 215 215 218
248 249 255 253 249 244 241 242 242 243 249 258 271 282 284 290 303 308 311 319 324 332 333 331 332 336 336 322 261 205 200 200 202 202 205 208 210 210 212 215 217 218 221 225
243 242 247 250 248 247 246 245 245 244 245 251 264 272 276 282 289 300 306 315 317 325 329 328 323 320 327 318 291 187 205 207 205 204 210 213 214 214 215 216 220 224 227 230
239 239 239 245 248 247 247 247 247 247 254 257 255 262 269 277 278 289 299 307 311 315 320 318 319 318 319 309 274 235 231 221 215 214 215 214 214 216 219 222 224 227 231 235
238 239 240 246 251 248 247 247 248 251 253 257 259 266 270 275 278 282 289 297 304 305 307 305 306 309 301 287 279 266 251 235 226 222 220 219 221 221 224 226 230 234 238 243
241 239 235 232 238 244 246 246 248 250 252 257 259 260 268 272 274 275 279 287 295 300 300 294 291 295 289 278 270 262 255 255 252 238 235 232 226 226 230 231 235 241 245 248
243 243 241 238 239 244 246 246 247 248 249 251 254 259 262 268 270 268 271 277 283 290 292 286 282 286 279 271 264 262 262 260 260 257 248 237 234 235 237 241 244 246 250 254
244 245 246 246 248 249 247 245 247 248 249 252 252 253 256 261 261 260 263 269 277 281 282 278 274 277 272 269 265 261 259 259 258 256 249 245 245 244 247 251 252 253 257 260
244 246 248 249 251 252 251 249 249 249 249 251 250 249 249 250 252 253 256 260 268 271 271 271 272 270 267 264 262 261 259 257 256 256 255 253 252 254 255 258 260 261 262 263
243 246 248 250 252 253 253 251 250 250 249 248 246 243 243 244 247 249 251 254 260 263 262 265 270 266 263 262 260 260 260 259 257 256 256 256 259 259 260 263 265 266 268 269
243 246 248 250 253 257 254 253 251 250 247 245 243 242 241 241 244 246 247 249 255 259 258 260 264 264 261 261 261 261 263 263 259 256 256 257 260 262 266 268 270 271 272 274
245 247 249 251 252 254 255 253 251 250 247 242 242 242 241 240 242 243 243 244 249 254 257 258 259 260 260 261 261 262 263 259 257 256 256 259 260 262 266 269 272 274 275 277
247 249 250 252 253 254 254 253 250 248 246 242 240 239 238 238 239 241 241 242 245 249 253 255 256 257 259 260 262 264 263 258 256 256 258 261 263 268 271 273 275 276 278 279
249 250 251 252 253 254 253 251 248 247 245 242 239 237 236 236 236 238 238 239 243 246 249 252 254 256 258 260 259 262 260 257 257 257 260 263 266 270 272 274 276 278 278 279
248 249 250 251 252 253 252 250 247 245 243 239 235 234 234 234 235 236 236 238 242 245 248 251 253 256 258 258 257 258 258 257 258 259 261 264 267 270 274 276 278 278 278 280
250 250 252 252 252 252 250 248 245 242 239 236 234 233 232 233 234 236 237 238 241 243 246 250 253 255 256 256 257 258 257 257 260 261 263 266 270 273 275 277 279 281 283 284
248 249 251 254 253 252 249 245 242 238 235 234 233 232 231 232 234 235 237 238 239 241 245 247 250 253 254 255 256 256 257 259 261 263 267 268 271 274 276 278 281 284 286 288
247 248 248 250 249 248 244 240 236 233 232 232 231 230 230 231 231 233 236 238 239 241 244 246 247 250 252 254 255 257 259 260 263 267 269 270 271 274 278 281 284 286 288 289
Height
5876 5876 5875 5875 5875 5876 5877 5877 5877 5877 5875 5875 5874 5872 5869 5866 5863 5860 5856 5852 5849 5846 5843 5840 5839 5837 5836 5835 5836 5837 5840 5842 5845 5849 5852 5856 5859 5862 5865 5868 5870 5873 5875 5876
5872 5871 5871 5870 5871 5872 5873 5873 5874 5874 5872 5872 5871 5869 5867 5864 5861 5858 5854 5851 5847 5844 5842 5839 5837 5835 5834 5834 5834 5836 5838 5841 5844 5847 5850 5853 5857 5860 5863 5866 5868 5871 5873 5875
5866 5867 5866 5866 5867 5868 5869 5870 5870 5870 5870 5869 5869 5868 5865 5862 5859 5856 5853 5849 5846 5843 5841 5838 5836 5834 5833 5833 5833 5834 5836 5839 5842 5845 5848 5851 5854 5857 5861 5864 5866 5869 5871 5873
5861 5861 5861 5861 5862 5864 5865 5866 5866 5867 5867 5868 5867 5866 5864 5860 5857 5854 5851 5848 5844 5842 5839 5837 5834 5833 5832 5831 5831 5833 5834 5837 5839 5842 5846 5849 5852 5855 5858 5861 5864 5867 5869 5871
5856 5856 5856 5857 5858 5859 5861 5862 5863 5863 5864 5864 5864 5863 5863 5858 5855 5852 5849 5846 5843 5841 5838 5836 5833 5832 5830 5829 5829 5830 5832 5835 5837 5840 5843 5846 5849 5853 5856 5859 5862 5865 5867 5869
5850 5850 5851 5853 5854 5855 5857 5858 5859 5860 5862 5863 5862 5860 5860 5857 5853 5850 5847 5844 5842 5839 5837 5834 5832 5830 5828 5828 5828 5828 5830 5832 5834 5837 5840 5843 5847 5850 5854 5857 5860 5863 5865 5867
5845 5846 5847 5848 5849 5851 5853 5856 5858 5859 5860 5861 5858 5857 5857 5854 5851 5848 5846 5843 5840 5838 5836 5833 5831 5830 5828 5827 5826 5827 5828 5829 5832 5835 5838 5841 5845 5848 5852 5855 5858 5860 5863 5865
5841 5842 5843 5843 5845 5847 5849 5852 5855 5857 5859 5859 5855 5854 5854 5851 5848 5846 5844 5842 5839 5837 5835 5832 5830 5829 5827 5826 5825 5825 5826 5827 5830 5833 5836 5840 5843 5846 5850 5853 5855 5858 5860 5863
5837 5838 5838 5839 5840 5843 5844 5846 5850 5852 5852 5853 5854 5852 5850 5848 5846 5844 5842 5840 5838 5836 5834 5832 5830 5828 5827 5826 5825 5825 5825 5827 5829 5832 5835 5838 5841 5845 5848 5850 5853 5855 5858 5860
5832 5834 5835 5835 5836 5838 5841 5842 5844 5847 5848 5850 5851 5850 5849 5846 5844 5842 5840 5839 5837 5835 5833 5831 5829 5828 5827 5826 5825 5825 5826 5827 5829 5831 5834 5837 5840 5843 5846 5848 5851 5853 5856 5858
5827 5830 5831 5832 5833 5835 5836 5838 5839 5842 5844 5846 5847 5849 5845 5843 5841 5840 5839 5837 5835 5834 5832 5831 5829 5828 5827 5827 5826 5826 5827 5828 5829 5831 5833 5836 5838 5841 5843 5846 5848 5851 5853 5855
5821 5824 5827 5828 5829 5830 5832 5834 5836 5838 5839 5839 5841 5846 5841 5840 5838 5837 5836 5835 5833 5832 5831 5830 5829 5828 5827 5827 5827 5827 5827 5828 5829 5830 5832 5834 5836 5838 5841 5843 5845 5848 5850 5852
5814 5818 5822 5824 5826 5826 5826 5828 5830 5832 5834 5835 5837 5841 5837 5836 5835 5834 5834 5833 5831 5830 5830 5829 5828 5827 5827 5826 5826 5827 5827 5828 5828 5829 5831 5832 5834 5836 5839 5841 5843 5845 5846 5848
5806 5810 5815 5820 5820 5819 5821 5823 5824 5826 5828 5830 5832 5834 5833 5832 5831 5831 5831 5830 5829 5828 5828 5827 5827 5826 5826 5826 5826 5826 5827 5827 5828 5828 5829 5831 5832 5834 5836 5838 5839 5841 5842 5843
5797 5801 5804 5808 5810 5812 5814 5816 5818 5820 5822 5824 5827 5828 5828 5828 5827 5827 5827 5827 5826 5826 5825 5825 5825 5825 5825 5825 5825 5826 5826 5827 5827 5827 5828 5829 5830 5832 5833 5834 5836 5837 5838 5839
5788 5792 5795 5799 5801 5803 5805 5808 5811 5813 5815 5816 5819 5821 5822 5822 5822 5823 5823 5823 5823 5823 5823 5822 5822 5822 5822 5822 5823 5824 5824 5825 5825 5826 5826 5827 5828 5829 5830 5831 5831 5832 5833 5833
5780 5783 5786 5790 5792 5792 5796 5801 5803 5804 5807 5809 5811 5815 5815 5816 5817 5818 5818 5819 5819 5819 5819 5819 5819 5819 5819 5819 5820 5821 5821 5822 5822 5823 5824 5824 5825 5826 5826 5827 5827 5827 5828 5828
5772 5774 5776 5780 5783 5783 5791 5791 5793 5795 5798 5800 5802 5805 5807 5809 5810 5812 5813 5814 5814 5815 5815 5815 5815 5815 5815 5816 5817 5817 5818 5818 5819 5819 5820 5820 5821 5821 5822 5822 5822 5822 5822 5822
5763 5765 5768 5771 5772 5774 5780 5781 5784 5786 5788 5791 5793 5796 5798 5801 5803 5805 5806 5807 5809 5809 5810 5810 5811 5811 5811 5812 5813 5813 5813 5813 5814 5815 5815 5816 5816 5816 5816 5817 5817 5816 5816 5815
5754 5757 5759 5761 5763 5765 5771 5772 5774 5777 5779 5781 5783 5786 5789 5792 5795 5798 5799 5801 5802 5803 5804 5805 5806 5806 5807 5807 5808 5808 5808 5809 5809 5809 5810 5810 5810 5810 5811 5810 5810 5809 5809 5808
5747 5748 5750 5751 5753 5756 5760 5762 5765 5768 5770 5772 5774 5777 5780 5782 5786 5789 5791 5793 5795 5796 5798 5799 5800 5801 5801 5802 5802 5802 5803 5803 5803 5804 5804 5804 5804 5804 5804 5804 5803 5802 5801 5800
5738 5740 5741 5743 5744 5749 5750 5753 5755 5756 5759 5762 5764 5767 5770 5773 5776 5779 5782 5784 5787 5789 5790 5792 5793 5794 5795 5795 5796 5796 5796 5797 5797 5797 5798 5798 5798 5798 5797 5796 5796 5795 5793 5791
5730 5732 5733 5735 5738 5739 5741 5742 5744 5746 5749 5752 5755 5758 5761 5764 5767 5770 5773 5776 5779 5781 5783 5784 5786 5787 5787 5788 5788 5789 5789 5789 5790 5791 5791 5791 5791 5790 5789 5788 5787 5786 5784 5782
5723 5724 5724 5726 5728 5729 5731 5733 5735 5737 5740 5743 5746 5749 5752 5755 5759 5762 5765 5768 5770 5773 5775 5777 5778 5778 5779 5780 5780 5781 5782 5782 5783 5783 5784 5783 5783 5782 5781 5780 5778 5776 5774 5772
5715 5716 5716 5718 5720 5721 5722 5724 5726 5728 5731 5734 5737 5741 5744 5747 5751 5754 5757 5759 5762 5765 5767 5769 5770 5771 5772 5772 5773 5773 5774 5775 5775 5775 5775 5775 5774 5773 5772 5770 5769 5766 5764 5761
5708 5709 5710 5711 5712 5713 5715 5716 5718 5720 5723 5726 5729 5732 5736 5739 5743 5746 5749 5751 5754 5757 5758 5760 5762 5763 5764 5765 5765 5766 5767 5767 5767 5767 5767 5766 5765 5764 5762 5761 5759 5756 5753 5750